| time (UTC) | temp C | wind direction | speed KPH | gust KPH | rain 1hr cm | rain 24hr cm | rain mn cm | humidity % | barometer mb |
| 20260906203048 | 31 | 160 | 8.0 | 17.7 | 0.00 | 0.00 | 0.00 | 21 | 1021.9 |
| 20260906202556 | 31 | 316 | 3.2 | 17.7 | 0.00 | 0.00 | 0.00 | 21 | 1021.9 |
| 20260906202104 | 31 | 213 | 4.8 | 16.1 | 0.00 | 0.00 | 0.00 | 21 | 1022.0 |
| 20260906201507 | 31 | 116 | 3.2 | 11.3 | 0.00 | 0.00 | 0.00 | 22 | 1022.0 |
| 20260906201104 | 31 | 57 | 3.2 | 11.3 | 0.00 | 0.00 | 0.00 | 21 | 1022.1 |
| 20260906200505 | 31 | 139 | 1.6 | 6.4 | 0.00 | 0.00 | 0.00 | 22 | 1022.2 |
| 20260906200111 | 30 | 37 | 3.2 | 8.0 | 0.00 | 0.00 | 0.00 | 22 | 1022.2 |
| 20260906195507 | 30 | 148 | 3.2 | 8.0 | 0.00 | 0.00 | 0.00 | 22 | 1022.3 |
| 20260906195102 | 30 | 150 | 3.2 | 12.9 | 0.00 | 0.00 | 0.00 | 23 | 1022.4 |
| 20260906194553 | 30 | 157 | 3.2 | 12.9 | 0.00 | 0.00 | 0.00 | 23 | 1022.5 |
| 20260906194101 | 30 | 152 | 1.6 | 9.7 | 0.00 | 0.00 | 0.00 | 22 | 1022.5 |
| 20260906193553 | 30 | 293 | 1.6 | 11.3 | 0.00 | 0.00 | 0.00 | 21 | 1022.6 |
| 20260906193102 | 30 | 167 | 3.2 | 14.5 | 0.00 | 0.00 | 0.00 | 22 | 1022.6 |
| 20260906192504 | 30 | 125 | 4.8 | 14.5 | 0.00 | 0.00 | 0.00 | 22 | 1022.6 |
| 20260906192100 | 30 | 179 | 1.6 | 12.9 | 0.00 | 0.00 | 0.00 | 22 | 1022.7 |
| 20260906191504 | 30 | 163 | 6.4 | 12.9 | 0.00 | 0.00 | 0.00 | 22 | 1022.7 |
| 20260906191059 | 30 | 144 | 6.4 | 12.9 | 0.00 | 0.00 | 0.00 | 22 | 1022.7 |
| 20260906190505 | 29 | 295 | 0.0 | 9.7 | 0.00 | 0.00 | 0.00 | 23 | 1022.8 |
| 20260906190114 | 29 | 183 | 1.6 | 12.9 | 0.00 | 0.00 | 0.00 | 24 | 1022.9 |
| 20260906185550 | 29 | 165 | 6.4 | 12.9 | 0.00 | 0.00 | 0.00 | 23 | 1022.9 |
| 20260906185058 | 29 | 184 | 1.6 | 11.3 | 0.00 | 0.00 | 0.00 | 23 | 1022.9 |
| 20260906184554 | 29 | 186 | 4.8 | 11.3 | 0.00 | 0.00 | 0.00 | 23 | 1023.0 |
| 20260906184101 | 30 | 200 | 3.2 | 16.1 | 0.00 | 0.00 | 0.00 | 23 | 1023.0 |
| 20260906183555 | 30 | 161 | 8.0 | 16.1 | 0.00 | 0.00 | 0.00 | 23 | 1023.1 |
| 20260906183048 | 30 | 250 | 0.0 | 11.3 | 0.00 | 0.00 | 0.00 | 23 | 1023.1 |
| 20260906182550 | 29 | 180 | 4.8 | 11.3 | 0.00 | 0.00 | 0.00 | 24 | 1023.1 |
| 20260906182046 | 29 | 74 | 4.8 | 11.3 | 0.00 | 0.00 | 0.00 | 22 | 1023.2 |
| 20260906181550 | 29 | 166 | 3.2 | 8.0 | 0.00 | 0.00 | 0.00 | 23 | 1023.2 |
| 20260906181059 | 29 | 208 | 3.2 | 11.3 | 0.00 | 0.00 | 0.00 | 22 | 1023.3 |
| 20260906180502 | 30 | 162 | 4.8 | 9.7 | 0.00 | 0.00 | 0.00 | 21 | 1023.3 |
| 20260906180049 | 30 | 194 | 4.8 | 9.7 | 0.00 | 0.00 | 0.00 | 21 | 1023.3 |
| 20260906175542 | 30 | 173 | 6.4 | 9.7 | 0.00 | 0.00 | 0.00 | 21 | 1023.4 |
| 20260906175052 | 30 | 241 | 1.6 | 11.3 | 0.00 | 0.00 | 0.00 | 20 | 1023.5 |
| 20260906174558 | 30 | 235 | 4.8 | 11.3 | 0.00 | 0.00 | 0.00 | 21 | 1023.5 |
| 20260906174001 | 30 | 136 | 8.0 | 14.5 | 0.00 | 0.00 | 0.00 | 21 | 1023.4 |
| 20260906173555 | 29 | 149 | 3.2 | 14.5 | 0.00 | 0.00 | 0.00 | 22 | 1023.6 |
| 20260906173105 | 28 | 162 | 1.6 | 14.5 | 0.00 | 0.00 | 0.00 | 23 | 1023.7 |
| 20260906172558 | 28 | 130 | 6.4 | 14.5 | 0.00 | 0.00 | 0.00 | 23 | 1023.8 |
| 20260906172049 | 28 | 121 | 3.2 | 11.3 | 0.00 | 0.00 | 0.00 | 25 | 1023.7 |
| 20260906171557 | 27 | 81 | 4.8 | 12.9 | 0.00 | 0.00 | 0.00 | 25 | 1023.7 |
| 20260906171055 | 27 | 108 | 3.2 | 11.3 | 0.00 | 0.00 | 0.00 | 25 | 1023.8 |
| 20260906170604 | 27 | 155 | 6.4 | 11.3 | 0.00 | 0.00 | 0.00 | 26 | 1023.9 |
| 20260906170014 | 27 | 134 | 3.2 | 12.9 | 0.00 | 0.00 | 0.00 | 26 | 1023.9 |
| 20260906165601 | 27 | 111 | 6.4 | 12.9 | 0.00 | 0.00 | 0.00 | 27 | 1024.1 |
| 20260906165004 | 26 | 136 | 3.2 | 9.7 | 0.00 | 0.00 | 0.00 | 28 | 1024.1 |
| 20260906164601 | 26 | 67 | 4.8 | 9.7 | 0.00 | 0.00 | 0.00 | 29 | 1024.0 |
| 20260906164005 | 26 | 130 | 3.2 | 14.5 | 0.00 | 0.00 | 0.00 | 29 | 1024.2 |
| 20260906163600 | 25 | 105 | 8.0 | 14.5 | 0.00 | 0.00 | 0.00 | 30 | 1024.1 |
| 20260906163052 | 25 | 115 | 3.2 | 16.1 | 0.00 | 0.00 | 0.00 | 30 | 1024.0 |
| 20260906162600 | 25 | 138 | 4.8 | 19.3 | 0.00 | 0.00 | 0.00 | 30 | 1024.1 |
| 20260906162052 | 25 | 83 | 9.7 | 19.3 | 0.00 | 0.00 | 0.00 | 30 | 1024.1 |
| 20260906161601 | 24 | 89 | 4.8 | 16.1 | 0.00 | 0.00 | 0.00 | 32 | 1024.1 |
| 20260906161052 | 23 | 137 | 6.4 | 16.1 | 0.00 | 0.00 | 0.00 | 32 | 1024.1 |
| 20260906160543 | 23 | 111 | 8.0 | 16.1 | 0.00 | 0.00 | 0.00 | 33 | 1024.1 |
| 20260906160106 | 23 | 88 | 8.0 | 14.5 | 0.00 | 0.00 | 0.00 | 33 | 1024.1 |
| 20260906155558 | 23 | 119 | 9.7 | 14.5 | 0.00 | 0.00 | 0.00 | 33 | 1024.2 |
| 20260906155003 | 23 | 126 | 8.0 | 16.1 | 0.00 | 0.00 | 0.00 | 33 | 1024.2 |
| 20260906154601 | 22 | 115 | 6.4 | 16.1 | 0.00 | 0.00 | 0.00 | 34 | 1024.3 |
| 20260906154004 | 22 | 113 | 9.7 | 16.1 | 0.00 | 0.00 | 0.00 | 34 | 1024.2 |
| 20260906153557 | 22 | 73 | 8.0 | 17.7 | 0.00 | 0.00 | 0.00 | 34 | 1024.1 |
| 20260906153106 | 21 | 116 | 11.3 | 20.9 | 0.00 | 0.00 | 0.00 | 35 | 1024.1 |
| 20260906152507 | 21 | 107 | 11.3 | 22.5 | 0.00 | 0.00 | 0.00 | 34 | 1024.1 |
| 20260906152103 | 21 | 111 | 12.9 | 22.5 | 0.00 | 0.00 | 0.00 | 35 | 1024.2 |
| 20260906151506 | 21 | 122 | 9.7 | 16.1 | 0.00 | 0.00 | 0.00 | 36 | 1024.3 |
| 20260906151103 | 20 | 113 | 9.7 | 14.5 | 0.00 | 0.00 | 0.00 | 37 | 1024.3 |
| 20260906150507 | 20 | 102 | 9.7 | 16.1 | 0.00 | 0.00 | 0.00 | 38 | 1024.2 |
| 20260906150105 | 20 | 59 | 8.0 | 16.1 | 0.00 | 0.00 | 0.00 | 38 | 1024.2 |
| 20260906145555 | 20 | 113 | 6.4 | 14.5 | 0.00 | 0.00 | 0.00 | 39 | 1024.3 |
| 20260906145103 | 19 | 130 | 8.0 | 12.9 | 0.00 | 0.00 | 0.00 | 39 | 1024.3 |
| 20260906144553 | 18 | 150 | 4.8 | 12.9 | 0.00 | 0.00 | 0.00 | 39 | 1024.2 |
| 20260906144042 | 18 | 137 | 6.4 | 12.9 | 0.00 | 0.00 | 0.00 | 42 | 1024.1 |
| 20260906143550 | 18 | 103 | 4.8 | 11.3 | 0.00 | 0.00 | 0.00 | 42 | 1024.1 |
| 20260906143045 | 18 | 126 | 6.4 | 12.9 | 0.00 | 0.00 | 0.00 | 43 | 1024.0 |
| 20260906142551 | 17 | 97 | 4.8 | 11.3 | 0.00 | 0.00 | 0.00 | 44 | 1024.0 |
| 20260906142059 | 17 | 94 | 4.8 | 11.3 | 0.00 | 0.00 | 0.00 | 44 | 1024.1 |
| 20260906141502 | 17 | 111 | 3.2 | 9.7 | 0.00 | 0.00 | 0.00 | 44 | 1024.1 |
| 20260906141057 | 17 | 119 | 3.2 | 6.4 | 0.00 | 0.00 | 0.00 | 44 | 1024.1 |
| 20260906140605 | 16 | 101 | 1.6 | 4.8 | 0.00 | 0.00 | 0.00 | 45 | 1024.2 |
| 20260906140052 | 16 | 145 | 1.6 | 4.8 | 0.00 | 0.00 | 0.00 | 46 | 1024.2 |
| 20260906135600 | 16 | 111 | 1.6 | 6.4 | 0.00 | 0.00 | 0.00 | 46 | 1024.1 |
| 20260906135002 | 16 | 109 | 1.6 | 6.4 | 0.00 | 0.00 | 0.00 | 47 | 1024.0 |
| 20260906134601 | 15 | 87 | 3.2 | 4.8 | 0.00 | 0.00 | 0.00 | 48 | 1023.9 |
| 20260906134001 | 15 | 71 | 0.0 | 3.2 | 0.00 | 0.00 | 0.00 | 50 | 1024.0 |
| 20260906133558 | 14 | 114 | 0.0 | 4.8 | 0.00 | 0.00 | 0.00 | 51 | 1024.0 |
| 20260906133109 | 14 | 107 | 3.2 | 6.4 | 0.00 | 0.00 | 0.00 | 52 | 1024.0 |
| 20260906132559 | 13 | 113 | 3.2 | 6.4 | 0.00 | 0.00 | 0.00 | 52 | 1023.9 |
| 20260906132051 | 13 | 114 | 3.2 | 6.4 | 0.00 | 0.00 | 0.00 | 53 | 1024.0 |
| 20260906131542 | 13 | 128 | 1.6 | 3.2 | 0.00 | 0.00 | 0.00 | 54 | 1024.0 |
| 20260906131050 | 13 | 128 | 1.6 | 4.8 | 0.00 | 0.00 | 0.00 | 54 | 1023.9 |
| 20260906130543 | 13 | 127 | 1.6 | 4.8 | 0.00 | 0.00 | 0.00 | 53 | 1023.7 |
| 20260906130050 | 13 | 125 | 3.2 | 4.8 | 0.00 | 0.00 | 0.00 | 53 | 1023.6 |
| 20260906125542 | 13 | 119 | 3.2 | 4.8 | 0.00 | 0.00 | 0.00 | 53 | 1023.4 |
| 20260906125032 | 13 | 113 | 1.6 | 4.8 | 0.00 | 0.00 | 0.00 | 53 | 1023.4 |
| 20260906124540 | 13 | 126 | 3.2 | 6.4 | 0.00 | 0.00 | 0.00 | 53 | 1023.3 |
| 20260906124049 | 13 | 117 | 3.2 | 6.4 | 0.00 | 0.00 | 0.00 | 52 | 1023.4 |
| 20260906123601 | 13 | 109 | 3.2 | 6.4 | 0.00 | 0.00 | 0.00 | 52 | 1023.3 |
| 20260906123047 | 13 | 117 | 4.8 | 9.7 | 0.00 | 0.00 | 0.00 | 52 | 1023.3 |
| 20260906122555 | 14 | 113 | 4.8 | 6.4 | 0.00 | 0.00 | 0.00 | 51 | 1023.4 |
| 20260906122048 | 14 | 113 | 4.8 | 9.7 | 0.00 | 0.00 | 0.00 | 50 | 1023.3 |
| 20260906121555 | 14 | 121 | 3.2 | 9.7 | 0.00 | 0.00 | 0.00 | 49 | 1023.3 |
| 20260906121048 | 15 | 130 | 4.8 | 9.7 | 0.00 | 0.00 | 0.00 | 47 | 1023.2 |
| 20260906120538 | 15 | 99 | 4.8 | 9.7 | 0.00 | 0.00 | 0.00 | 46 | 1023.2 |
| 20260906120047 | 15 | 115 | 3.2 | 6.4 | 0.00 | 0.00 | 0.00 | 45 | 1023.2 |
| 20260906115539 | 16 | 117 | 3.2 | 6.4 | 0.00 | 0.00 | 0.00 | 44 | 1023.2 |
| 20260906115046 | 16 | 136 | 1.6 | 8.0 | 0.00 | 0.00 | 0.00 | 43 | 1023.3 |
| 20260906114606 | 16 | 126 | 4.8 | 12.9 | 0.00 | 0.00 | 0.00 | 43 | 1023.3 |
| 20260906114102 | 16 | 98 | 6.4 | 12.9 | 0.00 | 0.00 | 0.00 | 43 | 1023.2 |
| 20260906113555 | 16 | 105 | 4.8 | 12.9 | 0.00 | 0.00 | 0.00 | 43 | 1023.1 |
| 20260906113104 | 16 | 105 | 6.4 | 14.5 | 0.00 | 0.00 | 0.00 | 43 | 1023.1 |
| 20260906112556 | 16 | 59 | 8.0 | 14.5 | 0.00 | 0.00 | 0.00 | 43 | 1023.0 |
| 20260906112049 | 16 | 75 | 6.4 | 14.5 | 0.00 | 0.00 | 0.00 | 44 | 1023.1 |
| 20260906111600 | 16 | 88 | 6.4 | 16.1 | 0.00 | 0.00 | 0.00 | 44 | 1023.1 |
| 20260906111049 | 16 | 84 | 8.0 | 16.1 | 0.00 | 0.00 | 0.00 | 44 | 1023.0 |
| 20260906110601 | 15 | 84 | 6.4 | 14.5 | 0.00 | 0.00 | 0.00 | 45 | 1023.1 |
| 20260906110051 | 15 | 80 | 6.4 | 12.9 | 0.00 | 0.00 | 0.00 | 45 | 1023.0 |
| 20260906105541 | 15 | 104 | 4.8 | 11.3 | 0.00 | 0.00 | 0.00 | 45 | 1022.9 |
| 20260906105051 | 15 | 84 | 3.2 | 8.0 | 0.00 | 0.00 | 0.00 | 45 | 1022.9 |
| 20260906104551 | 15 | 88 | 3.2 | 6.4 | 0.00 | 0.00 | 0.00 | 45 | 1023.0 |
| 20260906104049 | 15 | 76 | 3.2 | 6.4 | 0.00 | 0.00 | 0.00 | 45 | 1023.0 |
| 20260906103542 | 16 | 86 | 3.2 | 9.7 | 0.00 | 0.00 | 0.00 | 45 | 1023.0 |
| 20260906103034 | 16 | 101 | 4.8 | 9.7 | 0.00 | 0.00 | 0.00 | 44 | 1023.0 |
| 20260906102539 | 16 | 99 | 4.8 | 11.3 | 0.00 | 0.00 | 0.00 | 44 | 1023.0 |
| 20260906102047 | 16 | 107 | 6.4 | 9.7 | 0.00 | 0.00 | 0.00 | 44 | 1022.9 |
| 20260906101556 | 16 | 76 | 4.8 | 9.7 | 0.00 | 0.00 | 0.00 | 43 | 1022.9 |
| 20260906101100 | 16 | 71 | 4.8 | 12.9 | 0.00 | 0.00 | 0.00 | 43 | 1022.9 |
| 20260906100501 | 16 | 74 | 6.4 | 12.9 | 0.00 | 0.00 | 0.00 | 42 | 1022.9 |
| 20260906100039 | 16 | 74 | 4.8 | 11.3 | 0.00 | 0.00 | 0.00 | 42 | 1022.8 |
| 20260906095543 | 16 | 82 | 6.4 | 8.0 | 0.00 | 0.00 | 0.00 | 42 | 1022.9 |
| 20260906095051 | 16 | 69 | 4.8 | 8.0 | 0.00 | 0.00 | 0.00 | 41 | 1023.0 |
| 20260906094558 | 16 | 77 | 1.6 | 4.8 | 0.00 | 0.00 | 0.00 | 40 | 1023.0 |
| 20260906094000 | 17 | 107 | 3.2 | 4.8 | 0.00 | 0.00 | 0.00 | 40 | 1023.0 |
| 20260906093511 | 17 | 96 | 1.6 | 9.7 | 0.00 | 0.00 | 0.00 | 39 | 1023.0 |
| 20260906093016 | 17 | 108 | 3.2 | 9.7 | 0.00 | 0.00 | 0.00 | 39 | 1022.9 |
| 20260906092523 | 17 | 98 | 4.8 | 9.7 | 0.00 | 0.00 | 0.00 | 38 | 1022.8 |
| 20260906092032 | 17 | 101 | 4.8 | 11.3 | 0.00 | 0.00 | 0.00 | 38 | 1022.8 |
| 20260906091540 | 17 | 85 | 4.8 | 11.3 | 0.00 | 0.00 | 0.00 | 37 | 1022.7 |
| 20260906091047 | 17 | 80 | 4.8 | 9.7 | 0.00 | 0.00 | 0.00 | 37 | 1022.8 |
| 20260906090555 | 17 | 89 | 4.8 | 9.7 | 0.00 | 0.00 | 0.00 | 37 | 1022.7 |
| 20260906090046 | 17 | 86 | 6.4 | 11.3 | 0.00 | 0.00 | 0.00 | 37 | 1022.7 |
| 20260906085554 | 17 | 94 | 6.4 | 9.7 | 0.00 | 0.00 | 0.00 | 37 | 1022.8 |
| 20260906085101 | 17 | 108 | 4.8 | 9.7 | 0.00 | 0.00 | 0.00 | 37 | 1022.8 |
| 20260906084505 | 17 | 87 | 4.8 | 9.7 | 0.00 | 0.00 | 0.00 | 37 | 1022.8 |
| 20260906084104 | 17 | 89 | 4.8 | 9.7 | 0.00 | 0.00 | 0.00 | 37 | 1022.9 |
| 20260906083503 | 17 | 98 | 6.4 | 11.3 | 0.00 | 0.00 | 0.00 | 36 | 1022.9 |
| 20260906083102 | 17 | 90 | 6.4 | 14.5 | 0.00 | 0.00 | 0.00 | 36 | 1022.9 |
| 20260906082505 | 17 | 64 | 6.4 | 12.9 | 0.00 | 0.00 | 0.00 | 36 | 1023.0 |
| 20260906082009 | 18 | 72 | 4.8 | 11.3 | 0.00 | 0.00 | 0.00 | 35 | 1023.0 |
| 20260906081604 | 18 | 61 | 3.2 | 6.4 | 0.00 | 0.00 | 0.00 | 35 | 1023.0 |
| 20260906081007 | 18 | 91 | 0.0 | 4.8 | 0.00 | 0.00 | 0.00 | 34 | 1023.1 |
| 20260906080517 | 18 | 91 | 0.0 | 4.8 | 0.00 | 0.00 | 0.00 | 34 | 1023.1 |
| 20260906080025 | 18 | 87 | 1.6 | 4.8 | 0.00 | 0.00 | 0.00 | 34 | 1023.1 |
| 20260906075529 | 18 | 93 | 0.0 | 4.8 | 0.00 | 0.00 | 0.00 | 34 | 1023.1 |
| 20260906075037 | 18 | 96 | 3.2 | 6.4 | 0.00 | 0.00 | 0.00 | 34 | 1023.1 |
| 20260906074546 | 18 | 101 | 3.2 | 6.4 | 0.00 | 0.00 | 0.00 | 34 | 1023.1 |
| 20260906074053 | 18 | 93 | 3.2 | 6.4 | 0.00 | 0.00 | 0.00 | 34 | 1023.1 |
| 20260906073604 | 18 | 86 | 3.2 | 6.4 | 0.00 | 0.00 | 0.00 | 34 | 1023.1 |
| 20260906073008 | 18 | 77 | 3.2 | 4.8 | 0.00 | 0.00 | 0.00 | 34 | 1023.0 |
| 20260906072600 | 18 | 82 | 1.6 | 4.8 | 0.00 | 0.00 | 0.00 | 35 | 1023.1 |
| 20260906072003 | 18 | 118 | 3.2 | 4.8 | 0.00 | 0.00 | 0.00 | 35 | 1023.1 |
| 20260906071600 | 18 | 127 | 1.6 | 3.2 | 0.00 | 0.00 | 0.00 | 34 | 1023.1 |
| 20260906071051 | 18 | 90 | 1.6 | 3.2 | 0.00 | 0.00 | 0.00 | 34 | 1023.1 |
| 20260906070559 | 18 | 323 | 0.0 | 0.0 | 0.00 | 0.00 | 0.00 | 34 | 1023.2 |
| 20260906070051 | 19 | 323 | 0.0 | 3.2 | 0.00 | 0.00 | 0.00 | 33 | 1023.2 |
| 20260906065543 | 19 | 323 | 0.0 | 3.2 | 0.00 | 0.00 | 0.00 | 33 | 1023.1 |
| 20260906065049 | 19 | 323 | 0.0 | 3.2 | 0.00 | 0.00 | 0.00 | 33 | 1023.0 |
| 20260906064601 | 19 | 323 | 0.0 | 3.2 | 0.00 | 0.00 | 0.00 | 33 | 1023.0 |
| 20260906064104 | 20 | 309 | 0.0 | 3.2 | 0.00 | 0.00 | 0.00 | 33 | 1023.0 |
| 20260906063558 | 20 | 326 | 1.6 | 6.4 | 0.00 | 0.00 | 0.00 | 33 | 1023.0 |
| 20260906063108 | 20 | 342 | 3.2 | 6.4 | 0.00 | 0.00 | 0.00 | 32 | 1023.1 |
| 20260906062555 | 20 | 360 | 3.2 | 6.4 | 0.00 | 0.00 | 0.00 | 32 | 1023.1 |
| 20260906062103 | 20 | 344 | 3.2 | 9.7 | 0.00 | 0.00 | 0.00 | 32 | 1023.1 |
| 20260906061559 | 20 | 5 | 4.8 | 11.3 | 0.00 | 0.00 | 0.00 | 31 | 1023.1 |
| 20260906061104 | 20 | 355 | 4.8 | 12.9 | 0.00 | 0.00 | 0.00 | 32 | 1023.2 |
| 20260906060506 | 20 | 5 | 4.8 | 12.9 | 0.00 | 0.00 | 0.00 | 31 | 1023.1 |
| 20260906060039 | 20 | 16 | 6.4 | 14.5 | 0.00 | 0.00 | 0.00 | 31 | 1023.1 |
| 20260906055544 | 20 | 22 | 8.0 | 16.1 | 0.00 | 0.00 | 0.00 | 31 | 1023.1 |
| 20260906055052 | 20 | 38 | 6.4 | 16.1 | 0.00 | 0.00 | 0.00 | 31 | 1023.1 |
| 20260906054609 | 20 | 16 | 8.0 | 16.1 | 0.00 | 0.00 | 0.00 | 31 | 1023.1 |
| 20260906054050 | 20 | 5 | 8.0 | 16.1 | 0.00 | 0.00 | 0.00 | 31 | 1023.0 |
| 20260906053600 | 20 | 37 | 6.4 | 12.9 | 0.00 | 0.00 | 0.00 | 31 | 1023.1 |
| 20260906053001 | 21 | 360 | 6.4 | 14.5 | 0.00 | 0.00 | 0.00 | 31 | 1023.0 |
| 20260906052509 | 21 | 36 | 8.0 | 14.5 | 0.00 | 0.00 | 0.00 | 31 | 1023.1 |
| 20260906052002 | 21 | 11 | 6.4 | 14.5 | 0.00 | 0.00 | 0.00 | 31 | 1023.1 |
| 20260906051509 | 21 | 15 | 6.4 | 12.9 | 0.00 | 0.00 | 0.00 | 31 | 1023.1 |
| 20260906051002 | 21 | 9 | 4.8 | 12.9 | 0.00 | 0.00 | 0.00 | 32 | 1023.1 |
| 20260906050558 | 21 | 29 | 4.8 | 12.9 | 0.00 | 0.00 | 0.00 | 32 | 1023.1 |
| 20260906050001 | 21 | 10 | 6.4 | 9.7 | 0.00 | 0.00 | 0.00 | 32 | 1023.1 |
| 20260906045600 | 21 | 360 | 4.8 | 9.7 | 0.00 | 0.00 | 0.00 | 32 | 1023.1 |
| 20260906045105 | 21 | 5 | 6.4 | 8.0 | 0.00 | 0.00 | 0.00 | 32 | 1023.0 |
| 20260906044558 | 21 | 28 | 4.8 | 8.0 | 0.00 | 0.00 | 0.00 | 32 | 1023.0 |
| 20260906044048 | 21 | 30 | 4.8 | 8.0 | 0.00 | 0.00 | 0.00 | 32 | 1023.1 |
| 20260906043556 | 21 | 13 | 4.8 | 8.0 | 0.00 | 0.00 | 0.00 | 31 | 1023.1 |
| 20260906043047 | 21 | 18 | 3.2 | 6.4 | 0.00 | 0.00 | 0.00 | 31 | 1023.1 |
| 20260906042555 | 22 | 26 | 3.2 | 6.4 | 0.00 | 0.00 | 0.00 | 31 | 1023.1 |
| 20260906042047 | 22 | 21 | 3.2 | 4.8 | 0.00 | 0.00 | 0.00 | 31 | 1023.1 |
| 20260906041540 | 22 | 349 | 1.6 | 6.4 | 0.00 | 0.00 | 0.00 | 30 | 1023.0 |
| 20260906041047 | 22 | 327 | 3.2 | 6.4 | 0.00 | 0.00 | 0.00 | 30 | 1023.0 |
| 20260906040536 | 22 | 308 | 3.2 | 8.0 | 0.00 | 0.00 | 0.00 | 30 | 1022.9 |
| 20260906040044 | 22 | 313 | 4.8 | 8.0 | 0.00 | 0.00 | 0.00 | 30 | 1022.9 |
| 20260906035555 | 22 | 345 | 3.2 | 4.8 | 0.00 | 0.00 | 0.00 | 31 | 1022.9 |
| 20260906035100 | 23 | 355 | 1.6 | 4.8 | 0.00 | 0.00 | 0.00 | 30 | 1022.8 |
| 20260906034551 | 23 | 5 | 1.6 | 3.2 | 0.00 | 0.00 | 0.00 | 30 | 1022.8 |
| 20260906034058 | 23 | 355 | 1.6 | 3.2 | 0.00 | 0.00 | 0.00 | 30 | 1022.8 |
| 20260906033501 | 23 | 303 | 1.6 | 3.2 | 0.00 | 0.00 | 0.00 | 30 | 1022.8 |
| 20260906033010 | 23 | 303 | 1.6 | 4.8 | 0.00 | 0.00 | 0.00 | 29 | 1022.8 |
| 20260906032503 | 24 | 312 | 1.6 | 3.2 | 0.00 | 0.00 | 0.00 | 29 | 1022.8 |
| 20260906032010 | 24 | 312 | 0.0 | 1.6 | 0.00 | 0.00 | 0.00 | 29 | 1022.8 |
| 20260906031504 | 24 | 312 | 0.0 | 4.8 | 0.00 | 0.00 | 0.00 | 29 | 1022.7 |
| 20260906031057 | 24 | 312 | 1.6 | 4.8 | 0.00 | 0.00 | 0.00 | 29 | 1022.6 |
| 20260906030604 | 25 | 282 | 3.2 | 4.8 | 0.00 | 0.00 | 0.00 | 28 | 1022.5 |
| 20260906030005 | 25 | 256 | 0.0 | 3.2 | 0.00 | 0.00 | 0.00 | 28 | 1022.4 |
| 20260906025511 | 25 | 253 | 1.6 | 3.2 | 0.00 | 0.00 | 0.00 | 28 | 1022.4 |
| 20260906025017 | 25 | 247 | 1.6 | 3.2 | 0.00 | 0.00 | 0.00 | 28 | 1022.3 |
| 20260906024503 | 25 | 247 | 0.0 | 3.2 | 0.00 | 0.00 | 0.00 | 28 | 1022.3 |
| 20260906024009 | 25 | 254 | 1.6 | 3.2 | 0.00 | 0.00 | 0.00 | 28 | 1022.2 |
| 20260906023516 | 25 | 279 | 0.0 | 3.2 | 0.00 | 0.00 | 0.00 | 27 | 1022.2 |
| 20260906023103 | 25 | 279 | 1.6 | 3.2 | 0.00 | 0.00 | 0.00 | 27 | 1022.1 |
| 20260906022501 | 25 | 279 | 0.0 | 3.2 | 0.00 | 0.00 | 0.00 | 27 | 1022.0 |
| 20260906022009 | 25 | 279 | 0.0 | 4.8 | 0.00 | 0.00 | 0.00 | 27 | 1022.0 |
| 20260906021603 | 26 | 286 | 1.6 | 4.8 | 0.00 | 0.00 | 0.00 | 27 | 1022.0 |
| 20260906021004 | 26 | 281 | 1.6 | 3.2 | 0.00 | 0.00 | 0.00 | 26 | 1022.0 |
| 20260906020511 | 26 | 290 | 1.6 | 3.2 | 0.00 | 0.00 | 0.00 | 26 | 1022.0 |
| 20260906020057 | 26 | 290 | 1.6 | 3.2 | 0.00 | 0.00 | 0.00 | 26 | 1021.9 |
| 20260906015545 | 26 | 280 | 1.6 | 4.8 | 0.00 | 0.00 | 0.00 | 26 | 1021.8 |
| 20260906015053 | 26 | 281 | 1.6 | 4.8 | 0.00 | 0.00 | 0.00 | 26 | 1021.8 |
| 20260906014555 | 26 | 288 | 3.2 | 6.4 | 0.00 | 0.00 | 0.00 | 25 | 1021.8 |
| 20260906014053 | 27 | 286 | 1.6 | 6.4 | 0.00 | 0.00 | 0.00 | 25 | 1021.8 |
| 20260906013545 | 27 | 286 | 3.2 | 6.4 | 0.00 | 0.00 | 0.00 | 25 | 1021.9 |
| 20260906013053 | 27 | 311 | 1.6 | 11.3 | 0.00 | 0.00 | 0.00 | 25 | 1021.9 |
| 20260906012601 | 27 | 288 | 3.2 | 9.7 | 0.00 | 0.00 | 0.00 | 25 | 1021.9 |
| 20260906012050 | 27 | 295 | 4.8 | 9.7 | 0.00 | 0.00 | 0.00 | 25 | 1021.9 |
| 20260906011559 | 27 | 304 | 6.4 | 9.7 | 0.00 | 0.00 | 0.00 | 25 | 1021.9 |
| 20260906011003 | 27 | 321 | 4.8 | 14.5 | 0.00 | 0.00 | 0.00 | 25 | 1021.9 |
| 20260906010511 | 27 | 291 | 8.0 | 14.5 | 0.00 | 0.00 | 0.00 | 25 | 1021.9 |
| 20260906010108 | 27 | 296 | 6.4 | 12.9 | 0.00 | 0.00 | 0.00 | 25 | 1022.0 |
| 20260906005509 | 27 | 296 | 3.2 | 6.4 | 0.00 | 0.03 | 0.00 | 26 | 1021.9 |
| 20260906005015 | 27 | 271 | 3.2 | 6.4 | 0.00 | 0.03 | 0.00 | 26 | 1022.0 |
| 20260906004524 | 27 | 295 | 1.6 | 6.4 | 0.00 | 0.03 | 0.00 | 27 | 1022.0 |
| 20260906004031 | 27 | 212 | 1.6 | 6.4 | 0.00 | 0.03 | 0.00 | 27 | 1021.9 |
| 20260906003539 | 28 | 232 | 1.6 | 6.4 | 0.00 | 0.03 | 0.00 | 26 | 1022.0 |
| 20260906003047 | 28 | 224 | 1.6 | 6.4 | 0.00 | 0.03 | 0.00 | 26 | 1022.0 |
| 20260906002555 | 28 | 231 | 3.2 | 8.0 | 0.00 | 0.03 | 0.00 | 26 | 1021.9 |
| 20260906002047 | 28 | 273 | 1.6 | 11.3 | 0.00 | 0.03 | 0.00 | 26 | 1022.0 |
| 20260906001553 | 28 | 290 | 6.4 | 11.3 | 0.00 | 0.03 | 0.00 | 26 | 1022.0 |
| 20260906001102 | 28 | 229 | 1.6 | 11.3 | 0.00 | 0.03 | 0.00 | 26 | 1022.0 |
| 20260906000505 | 28 | 273 | 3.2 | 14.5 | 0.00 | 0.03 | 0.00 | 25 | 1022.0 |
| 20260906000101 | 28 | 195 | 4.8 | 14.5 | 0.00 | 0.03 | 0.00 | 25 | 1022.0 |
| 20260905235503 | 28 | 201 | 8.0 | 12.9 | 0.00 | 0.03 | 0.00 | 25 | 1022.0 |
| 20260905235100 | 28 | 233 | 1.6 | 16.1 | 0.00 | 0.03 | 0.00 | 26 | 1022.0 |
| 20260905234503 | 28 | 330 | 6.4 | 16.1 | 0.00 | 0.03 | 0.00 | 26 | 1022.1 |
| 20260905234103 | 28 | 260 | 3.2 | 12.9 | 0.00 | 0.03 | 0.00 | 26 | 1022.1 |
| 20260905233502 | 28 | 218 | 3.2 | 14.5 | 0.00 | 0.03 | 0.00 | 25 | 1022.1 |
| 20260905233015 | 29 | 273 | 8.0 | 14.5 | 0.00 | 0.03 | 0.00 | 24 | 1022.1 |
| 20260905232521 | 29 | 267 | 3.2 | 12.9 | 0.00 | 0.03 | 0.00 | 24 | 1022.0 |
| 20260905232021 | 30 | 311 | 6.4 | 17.7 | 0.00 | 0.03 | 0.00 | 24 | 1022.0 |
| 20260905231535 | 29 | 200 | 6.4 | 17.7 | 0.00 | 0.03 | 0.00 | 24 | 1022.1 |
| 20260905231036 | 29 | 233 | 6.4 | 19.3 | 0.00 | 0.03 | 0.00 | 25 | 1022.1 |
| 20260905230544 | 29 | 305 | 9.7 | 20.9 | 0.00 | 0.03 | 0.00 | 25 | 1022.2 |
| 20260905230117 | 30 | 306 | 6.4 | 19.3 | 0.00 | 0.03 | 0.00 | 24 | 1022.1 |
| 20260905225545 | 30 | 273 | 6.4 | 19.3 | 0.00 | 0.03 | 0.00 | 25 | 1022.1 |
| 20260905225050 | 30 | 294 | 6.4 | 17.7 | 0.00 | 0.03 | 0.00 | 25 | 1022.1 |
| 20260905224559 | 30 | 319 | 9.7 | 17.7 | 0.00 | 0.03 | 0.00 | 24 | 1022.2 |
| 20260905224001 | 30 | 286 | 1.6 | 22.5 | 0.00 | 0.03 | 0.00 | 25 | 1022.2 |
| 20260905223556 | 30 | 279 | 9.7 | 22.5 | 0.00 | 0.03 | 0.00 | 25 | 1022.2 |
| 20260905223107 | 30 | 111 | 4.8 | 12.9 | 0.00 | 0.03 | 0.00 | 25 | 1022.2 |
| 20260905222557 | 30 | 235 | 3.2 | 16.1 | 0.00 | 0.03 | 0.00 | 25 | 1022.3 |
| 20260905222047 | 30 | 188 | 4.8 | 19.3 | 0.00 | 0.03 | 0.00 | 25 | 1022.3 |
| 20260905221600 | 30 | 247 | 9.7 | 19.3 | 0.00 | 0.03 | 0.00 | 26 | 1022.4 |
| 20260905221104 | 30 | 223 | 8.0 | 17.7 | 0.00 | 0.03 | 0.00 | 26 | 1022.4 |
| 20260905220505 | 30 | 204 | 6.4 | 22.5 | 0.00 | 0.03 | 0.00 | 26 | 1022.5 |
| 20260905220055 | 30 | 302 | 3.2 | 17.7 | 0.00 | 0.03 | 0.00 | 25 | 1022.5 |
| 20260905215603 | 30 | 258 | 9.7 | 17.7 | 0.00 | 0.03 | 0.00 | 24 | 1022.7 |
| 20260905215059 | 30 | 251 | 4.8 | 17.7 | 0.00 | 0.03 | 0.00 | 25 | 1022.6 |
| 20260905214604 | 30 | 223 | 6.4 | 24.1 | 0.00 | 0.03 | 0.00 | 25 | 1022.8 |
| 20260905214006 | 30 | 285 | 16.1 | 24.1 | 0.00 | 0.03 | 0.00 | 25 | 1022.7 |
| 20260905213601 | 30 | 315 | 16.1 | 24.1 | 0.00 | 0.03 | 0.00 | 25 | 1022.8 |
| 20260905213003 | 30 | 214 | 12.9 | 24.1 | 0.00 | 0.03 | 0.00 | 25 | 1022.9 |
| 20260905212559 | 30 | 280 | 8.0 | 24.1 | 0.00 | 0.03 | 0.00 | 25 | 1023.0 |
| 20260905212002 | 30 | 132 | 9.7 | 24.1 | 0.00 | 0.03 | 0.00 | 26 | 1022.9 |
| 20260905211604 | 30 | 288 | 1.6 | 14.5 | 0.00 | 0.03 | 0.00 | 26 | 1023.0 |
| 20260905211049 | 30 | 175 | 4.8 | 22.5 | 0.00 | 0.03 | 0.00 | 26 | 1023.0 |
| 20260905210556 | 30 | 212 | 6.4 | 22.5 | 0.00 | 0.03 | 0.00 | 26 | 1023.1 |
| 20260905210105 | 29 | 294 | 8.0 | 20.9 | 0.00 | 0.03 | 0.00 | 26 | 1023.1 |
| 20260905205507 | 29 | 304 | 11.3 | 22.5 | 0.00 | 0.03 | 0.00 | 26 | 1023.3 |
| 20260905205102 | 30 | 256 | 12.9 | 22.5 | 0.00 | 0.03 | 0.00 | 27 | 1023.3 |
| 20260905204505 | 30 | 257 | 6.4 | 17.7 | 0.00 | 0.03 | 0.00 | 25 | 1023.3 |
| 20260905204103 | 30 | 200 | 3.2 | 19.3 | 0.00 | 0.03 | 0.00 | 25 | 1023.4 |
| 20260905203553 | 30 | 225 | 6.4 | 19.3 | 0.00 | 0.03 | 0.00 | 25 | 1023.6 |